Back to catalog

STARLINK-31589

AliveCommunicationsVLEO
NORAD 59654·PAYLOAD·🇺🇸 United States

Launched May 6, 2024 from Cape Canaveral Space Force Station

Loading…

Next Passes (next 24 hours)

TLE

FreshSource: CelesTrak SupGP

Epoch: Sep 15, 2026, 03:12 UTC

1 59654C 24084A   26258.13381944 -.00025362  00000+0 -91835-3 0  2589
2 59654  43.0026  51.7495 0001699 269.0190 252.0816 15.27600601    12

Track STARLINK-31589 in real time with AllMySat

Download on the App Store